Hourly Data Report for August 28, 2021

KUGLUKTUK A
NUNAVUT
Current Station Operator: NAVCAN

67°49'00.000" N
115°08'38.000" W
22.60 m
2300903
71938
YCO

Download Data

Hourly Data (August 2021)
Hourly Data Report for August 28, 2021
TIME
LST
Temp Definition
°C
Dew Point Definition
°C
Rel Hum Definition
%
Precip. Amount Definition
mm

Wind Dir Definition
10's deg

Wind Spd Definition
km/h
Visibility Definition
km
Stn Press Definition
kPa
Hmdx Definition


Wind Chill Definition


Weather Definition


00:00 7.7 7.0 96   4 12 24.1 100.73     LegendNANA
01:00 7.3 6.8 96   3 12 8.1 100.75     Fog
02:00 7.4 6.8 96   6 7 6.4 100.79     Fog
03:00 7.2 6.7 97   6 4 4.8 100.81     Fog
04:00 4.8 4.5 97   16 4 0.4 100.83     Fog
05:00 6.1 5.8 98   7 4 2.4 100.84     Fog
06:00 5.3 5.0 98   10 3 0.2 100.88     Fog
07:00 7.0 6.8 99   6 5 16.1 100.89     LegendNANA
08:00 7.9 7.7 99   4 9 16.1 100.93     Cloudy
09:00 8.9 8.7 99   7 13 16.1 100.91     LegendNANA
10:00 8.8 8.6 98   8 16 24.1 100.93     LegendNANA
11:00 9.5 9.3 99   6 16 12.9 100.91     Cloudy
12:00 9.8 8.0 88   5 21 12.9 100.89     LegendNANA
13:00 10.3 7.8 85   6 28 24.1 100.87     LegendNANA
14:00 9.3 7.3 87   7 26 12.9 100.87     Cloudy
15:00 8.6 6.8 89   8 30 12.9 100.84     LegendNANA
16:00 8.6 6.9 89   9 22 12.9 100.85     LegendNANA
17:00 8.2 6.8 90   8 19 12.9 100.83     Cloudy
18:00 8.0 6.5 90   8 22 12.9 100.82     LegendNANA
19:00 7.8 6.5 91   7 22 19.3 100.78     LegendNANA
20:00 7.5 6.5 93   7 22 19.3 100.76     Mostly Cloudy
21:00 7.3 6.4 94   8 20 19.3 100.74     LegendNANA
22:00 7.5 6.6 94   8 20 19.3 100.72     LegendNANA
23:00 7.5 6.7 95   9 11 19.3 100.72     Cloudy

Notes on Data Quality.

Legend

  • E = Estimated
  • M = Missing
  • NA = Not Available*
  • [empty] = Indicates an unobserved value
Date modified: